Location: Hopewell Observatory
(38.8698°N, 77.6988°W)
Time: 18:02:24
(UTC-04:00)

Daily predictions for brighter satellites

Satellite Brightness Start Highest point End
(mag) Time Altitude Azimuth Time Altitude Azimuth Time Altitude Azimuth
Cosmos 2184 Rocket 4.2 20:49:03 10° SSE 20:54:55 49° E 21:00:49 10° NNE
CZ-3C R/B 4.3 20:13:27 10° SW 20:55:53 27° S 21:04:48 10° SE
Meteor 2-3 Rocket 3.7 20:50:22 10° S 20:55:59 82° E 21:01:36 10° N
CZ-2D R/B 3.6 20:52:20 10° S 20:56:07 70° W 20:59:56 10° NNW
ERBS 3.2 20:53:18 10° NNW 20:56:36 39° NE 20:59:53 10° ESE
FENGYUN 3A 3.8 20:51:54 10° S 20:57:18 81° WSW 21:02:43 10° NNW
Cosmos 1356 Rocket 3.6 20:54:14 10° S 20:58:19 53° E 21:02:30 10° NNE
Cosmos 1733 Rocket 3.5 20:54:19 10° SSE 20:58:27 40° E 21:02:34 10° NNE
Cosmos 2263 Rocket 3.5 20:53:35 10° SW 20:59:01 48° WNW 21:04:29 10° NNE
SL-8 R/B 3.8 20:56:23 10° WSW 21:01:14 87° NNW 21:06:04 10° ENE
YAOGAN 11 4.3 20:57:40 10° SSE 21:02:05 58° ENE 21:06:34 10° N
PSLV R/B 3.3 21:03:50 10° WNW 21:07:17 86° NNE 21:10:47 10° ESE
GPS 2-05 Rocket1 4.5 21:04:54 10° SSW 21:07:38 20° SSE 21:10:18 10° ESE
ERS-1 Rocket 3.2 21:03:50 10° SSE 21:08:46 57° ENE 21:13:42 10° N
Meteor 2-10 Rocket 3.8 21:04:26 10° N 21:10:15 70° E 21:15:55 10° SSE
Cosmos 1340 Rocket 3.2 21:07:26 10° SSW 21:11:23 67° W 21:15:24 10° N
Cosmos 909 Rocket 4.3 21:06:07 10° SSW 21:12:32 85° ESE 21:20:13 10° NNE
Abrixas rocket 3.4 21:11:59 10° WNW 21:15:09 36° SW 21:18:14 10° SSE
CZ-4 DEB 2.8 21:12:17 10° S 21:15:26 82° WSW 21:18:38 10° NNW
Cosmos 1190 Rocket 4.4 21:11:13 10° N 21:16:13 46° ENE 21:20:56 11° SE
Cosmos 1782 3.2 21:16:13 10° N 21:20:06 45° E 21:23:48 11° SSE
Atlas Centaur 2 2.5 21:19:03 10° SW 21:21:50 21° S 21:23:48 14° SE
USA 186 3.5 21:19:31 10° SSW 21:22:15 31° W 21:25:10 10° NNW
USA 234 4.3 21:19:02 10° ENE 21:23:29 19° ESE 21:27:56 10° SSE
Cosmos 1939 Rocket 2.9 21:19:44 10° SSE 21:23:31 55° ENE 21:27:20 10° N
H-2A R/B 2.4 21:21:11 11° SSE 21:25:15 50° ENE 21:29:22 10° N
Cosmos 1606 3.7 21:22:25 10° NNE 21:25:56 30° ENE 21:28:25 16° SE
Cosmos 2074 Rocket 4.1 21:21:56 10° S 21:28:14 85° W 21:34:32 10° N
Cosmos 1892 3.4 21:27:42 10° SSW 21:31:27 57° W 21:35:17 10° N
Cosmos 1610 Rocket 4.4 21:31:05 10° S 21:37:13 77° E 21:43:26 10° N
Nadezhda 3 Rocket 4.2 21:38:45 10° N 21:45:01 57° E 21:50:03 16° SSE
Cosmos 1184 Rocket 3.8 21:45:10 25° ESE 21:45:53 27° E 21:48:46 10° NNE
Cosmos 676 Rocket 4.3 21:41:20 10° N 21:46:25 52° ENE 21:49:42 21° SE
Okean 2 Rocket 4.0 21:45:32 21° SE 21:47:24 29° E 21:51:14 10° NNE
Cosmos 2056 Rocket 4.2 21:43:08 10° SSW 21:48:12 56° WNW 21:53:16 10° N
Meteor 2-6 Rocket 4.3 21:42:53 10° N 21:48:53 88° W 21:54:28 11° S
CENTAUR R/B 3.6 21:42:40 10° NW 21:50:27 59° WSW 21:58:04 12° SSE
MetOp-B 4.3 21:46:46 19° SE 21:50:32 56° ENE 21:55:47 10° N
Cosmos 1174 4.0 21:48:31 10° NNW 21:51:33 35° NE 21:52:28 28° E
Cosmos 1954 Rocket 4.5 21:47:39 10° N 21:52:39 45° ENE 21:55:29 24° SE
Sich 1 Rocket 3.7 21:49:27 10° S 21:54:01 82° W 21:58:38 10° N
Cosmos 1674 Rocket 3.9 21:50:26 10° NNW 21:54:52 67° W 21:58:53 12° S
CZ-4 SHROUD 3.2 21:59:35 40° SE 22:00:28 60° ENE 22:03:32 10° N
Intercosmos 25 3.9 22:02:34 32° ESE 22:03:02 33° E 22:06:01 10° NNE
Cosmos 2341 Rocket 4.0 21:57:20 10° S 22:03:36 70° E 22:09:51 10° NNE
ARGOS 3.6 22:01:08 25° SE 22:03:51 45° ENE 22:08:55 10° N
COSMOS 2406 4.0 21:59:27 10° NW 22:04:57 48° WSW 22:09:46 13° S
ATLAS 5 CENTAUR R/B 3.1 22:00:15 10° NW 22:06:08 51° WSW 22:10:52 17° S
Cosmos 1782 Rocket 3.6 22:04:17 24° SSE 22:06:51 61° E 22:11:17 10° NNE
SL-27 R/B 3.6 22:03:32 10° NNW 22:06:59 41° WSW 22:09:09 19° SSW
COS B Rocket 3.3 22:03:36 10° N 22:07:45 77° W 22:10:09 22° S
PSLV R/B 3.1 22:12:35 50° S 22:13:13 73° W 22:16:10 10° NNW
Okean 3 3.4 22:09:03 10° N 22:13:21 71° E 22:14:59 36° SSE
COSMOS 2487 2.7 22:11:44 10° N 22:15:17 53° ENE 22:15:53 46° ESE
Timation 2 Rocket 4.4 22:11:24 10° NNW 22:17:09 45° ENE 22:19:46 29° ESE
APEX 3.9 22:17:23 37° E 22:17:23 37° E 22:21:34 10° NE
Cosmos 2278 Rocket 2.1 22:12:57 10° SSW 22:18:37 82° ESE 22:24:20 10° NNE
Cosmos 1238 Rocket 2.4 22:15:59 10° N 22:19:12 82° W 22:20:11 45° S
SPOT 5 3.5 22:17:33 19° S 22:21:15 62° W 22:26:34 10° NNW
Cosmos 1844 4.2 22:16:38 10° SW 22:22:19 62° WNW 22:28:05 10° NNE
Cosmos 1833 Rocket 4.2 22:18:03 10° N 22:22:31 24° NE 22:24:36 19° E
Cosmos 1825 2.6 22:21:19 21° SSW 22:23:43 61° W 22:27:31 10° N
Cosmos 1975 Rocket 2.9 22:19:34 10° N 22:23:54 78° E 22:25:16 43° SSE
Envisat 4.1 22:20:01 12° SSW 22:24:24 39° W 22:29:10 10° NNW
SL-8 Rocket 4.0 22:21:27 27° SSE 22:24:52 60° E 22:31:01 10° NNE
ISS -3.5 22:22:15 10° SW 22:25:30 87° SE 22:25:57 64° ENE
Terra 2.9 22:25:43 27° E 22:26:38 29° ENE 22:30:42 10° N
Cosmos 1844 Rocket 4.0 22:21:49 10° SW 22:27:09 41° WNW 22:32:29 10° N
Cosmos 1862 4.2 22:24:04 13° SSW 22:27:29 48° W 22:31:27 10° N
YAOGAN 6 3.0 22:29:22 40° SSW 22:30:17 55° W 22:33:45 10° NNW
Cosmos 1408 3.5 22:29:47 20° SW 22:31:58 45° W 22:35:31 10° N
Cosmos 1420 Rocket 3.9 22:31:27 22° SSW 22:34:54 83° ESE 22:40:09 10° NNE
H-2A R/B 2.6 22:34:39 37° ESE 22:36:07 46° ENE 22:41:12 10° N
Cosmos 1378 Rocket 4.5 22:34:25 10° NNW 22:38:30 43° W 22:40:33 25° SSW
Cosmos 2082 Rocket 2.9 22:34:19 10° N 22:39:40 40° ENE 22:41:15 33° E
USA 245 3.2 22:40:07 55° WSW 22:40:13 56° W 22:43:49 10° NNW
Cosmos 1242 Rocket 2.5 22:40:11 10° NNW 22:43:51 80° W 22:43:57 79° SW
CZ-4C R/B 3.3 22:49:12 64° ENE 22:49:12 64° ENE 22:53:03 10° N
Cosmos 2297 3.6 22:48:47 35° S 22:51:17 77° ESE 22:57:02 10° NNE
SPOT 1/Viking Rocket 4.0 22:49:14 34° SSW 22:51:19 57° W 22:56:28 10° NNW
Cosmos 614 Rocket 3.9 22:46:37 10° NNW 22:51:42 68° ENE 22:52:31 57° ESE
SL-08 RB Rocket 3.8 22:51:07 53° SSW 22:52:06 73° WSW 22:56:44 10° NNW
Cosmos 2151 Rocket 3.5 22:52:35 69° ESE 22:52:48 70° E 22:57:20 10° NNE
Cosmos 864 Rocket 4.4 22:54:36 45° SSE 22:56:30 72° E 23:02:39 10° N
Cosmos 1140 Rocket 3.6 22:51:59 10° NNW 22:57:07 69° WSW 22:58:17 51° SSW
Cosmos 2366 rocket 3.9 23:01:48 42° S 23:04:07 88° E 23:10:29 10° N
USA 234 3.1 23:00:28 10° NE 23:07:02 84° SE 23:13:34 10° SW
Okean 1 Rocket 4.1 23:22:47 38° NE 23:22:47 38° NE 23:25:52 10° NNE
Cosmos 1300 Rocket 4.3 23:23:42 44° NE 23:23:42 44° NE 23:26:59 10° NNE
Cosmos 1850 Rocket 4.5 23:20:43 10° NNW 23:25:52 50° WSW 23:26:29 48° SW
DMSP B5D2-2 4.2 23:23:14 10° N 23:28:26 71° WNW 23:29:16 59° SW
Cosmos 2369 Rocket 4.2 23:31:03 15° ENE 23:31:03 15° ENE 23:32:35 10° NE
Okean 1 4.3 23:27:45 10° N 23:30:38 44° N 23:30:38 44° N
IGS 5A 4.1 23:32:35 52° WNW 23:32:35 52° WNW 23:36:01 10° NNW
Meteor 1-20 Rocket 4.1 23:33:04 71° SW 23:33:40 80° W 23:39:15 10° N
Cosmos 1000 Rocket 4.5 23:37:32 10° N 23:43:44 64° E 23:44:01 63° E
Cosmos 1727 Rocket 4.4 23:40:56 10° NNW 23:46:53 52° W 23:48:04 46° SW
